Date String (YYYY-MM-DD hh:mm:ss) UTC,Instrument flags,absolute air pressure of the measurement (hPa),sample flow rate (lpm),inlet stack bypass flow (lpm),air temperature of the measurement (°C),ambient temperature measured by the external sensor (°C),aerosol sample conditioner tube jacket temperature (°C),OPC LED temperature (°C),internal box temperature (°C),relative humidity of the measurement (%),span deviation,mass concentration of particles derived from Lorenz-Mie calculation of OPC scattering (μg/m³),mass concentration of particles derived from Lorenz-Mie calculation of OPC scattering (μg/m³),mass concentration of particles derived from Lorenz-Mie calculation of OPC scattering (μg/m³)
DateTimeUTC,F1_M11,P_M11,Q1_M11,Q2_M11,T1_M11,T2_M11,T3_M11,T4_M11,T5_M11,U1_M11,ZSPAN_M11,X2_M11,X0_M11,X1_M11
2024-04-10 09:00:00,SystemResetWarning,0828.7,5.00,000.00,025.0,024.3,000.0,033.5,026.8,012.5,0000.0,0004.07,0013.38,0002.03
2024-04-10 09:01:00,SystemResetWarning,0828.6,5.00,000.00,025.0,024.3,000.0,033.5,026.8,012.4,0000.0,0004.07,0013.60,0002.02
2024-04-10 09:02:00,SystemResetWarning,0828.6,4.99,000.00,025.0,024.3,000.0,033.5,026.8,012.4,0000.0,0004.03,0013.55,0002.00
2024-04-10 09:03:00,SystemResetWarning,0828.7,5.00,000.00,025.0,024.3,000.0,033.5,026.9,012.3,0000.0,0004.02,0012.89,0001.99
2024-04-10 09:04:00,SystemResetWarning,0828.6,4.99,000.00,025.0,024.3,000.0,033.5,026.9,012.3,0000.0,0004.04,0012.69,0002.00
2024-04-10 09:05:00,SystemResetWarning,0828.6,5.00,000.00,025.0,024.3,000.0,033.5,026.8,012.5,0000.0,0004.06,0012.93,0001.99
2024-04-10 09:06:00,SystemResetWarning,0828.6,5.01,000.00,025.0,024.3,000.0,033.5,026.9,012.5,0000.0,0004.08,0013.12,0001.98
2024-04-10 09:07:00,SystemResetWarning,0828.6,5.01,000.00,025.0,024.3,000.0,033.5,026.9,012.5,0000.0,0004.14,0013.29,0001.99
2024-04-10 09:08:00,SystemResetWarning,0828.6,5.01,000.00,025.0,024.3,000.0,033.5,026.9,012.3,0000.0,0004.13,0013.25,0001.99
2024-04-10 09:09:00,SystemResetWarning,0828.6,4.99,000.00,025.0,024.3,000.0,033.5,026.9,012.4,0000.0,0004.07,0013.65,0002.00
2024-04-10 09:10:00,SystemResetWarning,0828.6,4.99,000.00,025.0,024.3,000.0,033.5,026.9,012.8,0000.0,0003.99,0013.35,0002.01
2024-04-10 09:11:00,SystemResetWarning,0828.6,4.99,000.00,025.0,024.3,000.0,033.5,026.9,012.8,0000.0,0003.98,0013.54,0002.02
2024-04-10 09:12:00,SystemResetWarning,0828.6,5.02,000.00,025.0,024.3,000.0,033.5,026.9,012.5,0000.0,0003.95,0013.41,0002.01
2024-04-10 09:13:00,SystemResetWarning,0828.6,5.00,000.00,025.0,024.3,000.0,033.5,026.9,012.4,0000.0,0003.90,0012.72,0001.99
2024-04-10 09:14:00,SystemResetWarning,0828.6,5.00,000.00,025.0,024.3,000.0,033.5,026.9,012.6,0000.0,0003.85,0013.33,0001.96
2024-04-10 09:15:00,SystemResetWarning,0828.6,5.00,000.00,025.0,024.3,000.0,033.5,026.9,012.6,0000.0,0003.81,0012.92,0001.92
2024-04-10 09:16:00,SystemResetWarning,0828.7,5.00,000.00,025.0,024.3,000.0,033.5,026.9,012.6,0000.0,0003.75,0012.61,0001.89
2024-04-10 09:17:00,SystemResetWarning,0828.7,5.00,000.00,025.0,024.3,000.0,033.5,026.9,012.5,0000.0,0003.65,0012.03,0001.83
2024-04-10 09:18:00,SystemResetWarning,0828.7,5.00,000.00,025.0,024.3,000.0,033.5,026.9,012.5,0000.0,0003.48,0011.62,0001.73
2024-04-10 09:19:00,SystemResetWarning,0828.8,5.00,000.00,025.0,024.3,000.0,033.5,026.9,012.4,0000.0,0003.41,0011.37,0001.69
2024-04-10 09:20:00,SystemResetWarning,0828.8,5.00,000.00,025.0,024.3,000.0,033.5,026.9,012.3,0000.0,0003.36,0010.77,0001.63
2024-04-10 09:21:00,SystemResetWarning,0828.8,5.00,000.00,025.0,024.3,000.0,033.5,026.9,012.5,0000.0,0003.31,0010.52,0001.57
2024-04-10 09:22:00,SystemResetWarning,0828.8,5.00,000.00,025.0,024.3,000.0,033.5,026.9,012.9,0000.0,0003.22,0009.51,0001.51
2024-04-10 09:23:00,SystemResetWarning,0828.8,5.01,000.00,025.0,024.3,000.0,033.5,026.9,013.1,0000.0,0003.13,0009.11,0001.43
2024-04-10 09:24:00,SystemResetWarning,0828.9,5.00,000.00,025.0,024.3,000.0,033.5,026.9,013.3,0000.0,0003.00,0008.92,0001.36
2024-04-10 09:25:00,SystemResetWarning,0828.9,5.01,000.00,025.0,024.3,000.0,033.5,026.8,013.3,0000.0,0002.79,0007.67,0001.29
2024-04-10 09:26:00,SystemResetWarning,0828.9,5.00,000.00,025.0,024.3,000.0,033.5,026.8,013.2,0000.0,0002.61,0007.02,0001.22
2024-04-10 09:27:00,SystemResetWarning,0828.9,5.00,000.00,025.0,024.3,000.0,033.5,026.8,013.3,0000.0,0002.52,0006.29,0001.15
2024-04-10 09:28:00,SystemResetWarning,0829.0,4.99,000.00,025.0,024.3,000.0,033.5,026.8,013.4,0000.0,0002.48,0006.06,0001.11
2024-04-10 09:29:00,SystemResetWarning,0829.0,4.99,000.00,025.0,024.3,000.0,033.5,026.8,013.3,0000.0,0002.41,0005.99,0001.08
2024-04-10 09:30:00,SystemResetWarning,0829.0,5.00,000.00,025.0,024.3,000.0,033.5,026.8,013.3,0000.0,0002.18,0005.65,0001.02
2024-04-10 09:31:00,SystemResetWarning,0829.0,5.00,000.00,025.0,024.2,000.0,033.5,026.8,013.3,0000.0,0001.96,0005.33,0000.95
2024-04-10 09:32:00,SystemResetWarning,0829.0,5.00,000.00,025.0,024.2,000.0,033.5,026.8,013.4,0000.0,0001.83,0006.41,0000.89
2024-04-10 09:33:00,SystemResetWarning,0829.0,5.01,000.00,025.0,024.2,000.0,033.5,026.8,013.6,0000.0,0001.75,0006.40,0000.85
2024-04-10 09:34:00,SystemResetWarning,0828.9,5.01,000.00,025.0,024.2,000.0,033.5,026.8,013.9,0000.0,0001.74,0006.46,0000.83
2024-04-10 09:35:00,SystemResetWarning,0828.9,5.00,000.00,025.0,024.2,000.0,033.5,026.8,013.9,0000.0,0001.75,0006.55,0000.82
2024-04-10 09:36:00,SystemResetWarning,0828.9,5.00,000.00,025.0,024.2,000.0,033.5,026.8,013.9,0000.0,0001.77,0006.25,0000.80
2024-04-10 09:37:00,SystemResetWarning,0828.8,5.00,000.00,025.0,024.2,000.0,033.5,026.8,014.0,0000.0,0001.73,0006.10,0000.79
2024-04-10 09:38:00,SystemResetWarning,0828.8,4.99,000.00,025.0,024.2,000.0,033.5,026.8,014.0,0000.0,0001.62,0006.13,0000.77
2024-04-10 09:39:00,SystemResetWarning,0828.8,5.01,000.00,025.0,024.2,000.0,033.5,026.8,014.0,0000.0,0001.54,0006.31,0000.76
2024-04-10 09:40:00,SystemResetWarning,0828.8,5.01,000.00,025.0,024.2,000.0,033.5,026.8,014.0,0000.0,0001.52,0006.14,0000.74
2024-04-10 09:41:00,SystemResetWarning,0828.8,5.00,000.00,025.0,024.2,000.0,033.5,026.8,014.0,0000.0,0001.56,0006.20,0000.72
2024-04-10 09:42:00,SystemResetWarning,0828.8,4.99,000.00,025.0,024.2,000.0,033.5,026.8,014.0,0000.0,0001.55,0006.21,0000.70
2024-04-10 09:43:00,SystemResetWarning,0828.8,4.99,000.00,025.0,024.2,000.0,033.5,026.8,014.1,0000.0,0001.49,0004.61,0000.68
2024-04-10 09:44:00,SystemResetWarning,0828.9,4.99,000.00,024.9,024.2,000.0,033.5,026.8,014.2,0000.0,0001.44,0004.18,0000.65
2024-04-10 09:45:00,SystemResetWarning,0829.0,5.00,000.00,024.9,024.2,000.0,033.5,026.8,014.2,0000.0,0001.36,0003.76,0000.63
2024-04-10 09:46:00,SystemResetWarning,0828.9,5.01,000.00,024.9,024.2,000.0,033.5,026.8,014.2,0000.0,0001.31,0003.62,0000.62
2024-04-10 09:47:00,SystemResetWarning,0829.0,5.00,000.00,024.9,024.2,000.0,033.5,026.8,014.2,0000.0,0001.23,0003.41,0000.61
2024-04-10 09:48:00,SystemResetWarning,0829.0,5.00,000.00,024.9,024.2,000.0,033.5,026.8,014.2,0000.0,0001.20,0003.34,0000.60
2024-04-10 09:49:00,SystemResetWarning,0828.9,5.00,000.00,024.9,024.2,000.0,033.5,026.8,014.3,0000.0,0001.20,0003.27,0000.59
2024-04-10 09:50:00,SystemResetWarning,0829.0,4.99,000.00,024.9,024.2,000.0,033.5,026.8,014.2,0000.0,0001.15,0002.50,0000.58
2024-04-10 09:51:00,SystemResetWarning,0829.0,5.00,000.00,024.9,024.2,000.0,033.5,026.8,014.2,0000.0,0001.20,0002.62,0000.57
2024-04-10 09:52:00,SystemResetWarning,0829.0,5.00,000.00,024.9,024.2,000.0,033.5,026.8,014.2,0000.0,0001.16,0002.41,0000.57
2024-04-10 09:53:00,SystemResetWarning,0829.0,5.00,000.00,024.9,024.2,000.0,033.5,026.8,014.2,0000.0,0001.15,0002.33,0000.57
2024-04-10 09:54:00,SystemResetWarning,0828.9,5.00,000.00,024.9,024.2,000.0,033.5,026.7,014.2,0000.0,0001.15,0002.35,0000.56
2024-04-10 09:55:00,SystemResetWarning,0829.0,5.01,000.00,024.9,024.2,000.0,033.5,026.8,014.2,0000.0,0001.17,0002.66,0000.56
2024-04-10 09:56:00,SystemResetWarning,0829.0,5.01,000.00,024.9,024.2,000.0,033.5,026.8,014.2,0000.0,0001.14,0002.98,0000.56
2024-04-10 09:57:00,SystemResetWarning,0828.9,4.99,000.00,024.9,024.2,000.0,033.4,026.8,014.3,0000.0,0001.10,0003.20,0000.54
2024-04-10 09:58:00,SystemResetWarning,0828.9,4.99,000.00,024.9,024.2,000.0,033.4,026.8,014.3,0000.0,0001.09,0003.21,0000.54
2024-04-10 09:59:00,SystemResetWarning,0828.9,4.99,000.00,024.9,024.2,000.0,033.4,026.8,014.3,0000.0,0001.11,0003.29,0000.54
